2023/05/06 00:00:00, 0.4,18.7
2023/05/06 00:10:00, 0.4,18.7
2023/05/06 00:20:00, 0.4,18.7
2023/05/06 00:30:00, 0.3,18.7
2023/05/06 00:40:00, 0.3,18.4
2023/05/06 00:50:00, 0.2,18.5
2023/05/06 01:00:00, 0.2,18.4
2023/05/06 01:10:00, 0.3,18.7
2023/05/06 01:20:00, 0.3,18.6
2023/05/06 01:30:00, 0.3,18.8
2023/05/06 01:40:00, 0.4,18.6
2023/05/06 01:50:00, 0.6,18.8
2023/05/06 02:00:00, 0.7,18.8
2023/05/06 02:10:00, 0.7,18.6
2023/05/06 02:20:00, 0.6,18.7
2023/05/06 02:30:00, 0.7,18.4
2023/05/06 02:40:00, 0.5,18.4
2023/05/06 02:50:00, 1.0,18.4
2023/05/06 03:00:00, 0.8,18.4
2023/05/06 03:10:00, 0.6,18.5
2023/05/06 03:20:00, 0.4,18.3
2023/05/06 03:30:00, 0.6,18.3
2023/05/06 03:40:00, 0.7,18.2
2023/05/06 03:50:00, 0.7,18.3
2023/05/06 04:00:00, 0.6,18.1
2023/05/06 04:10:00, 0.5,17.9
2023/05/06 04:20:00, 0.4,18.0
2023/05/06 04:30:00, 0.4,17.9
2023/05/06 04:40:00, 0.6,17.9
2023/05/06 04:50:00, 0.7,17.9
2023/05/06 05:00:00, 0.5,17.7
2023/05/06 05:10:00, 0.5,17.9
2023/05/06 05:20:00, 0.5,17.9
2023/05/06 05:30:00, 0.5,18.1
2023/05/06 05:40:00, 0.7,18.0
2023/05/06 05:50:00, 0.5,18.0
2023/05/06 06:00:00, 0.4,18.1
2023/05/06 06:10:00, 0.3,18.5
2023/05/06 06:20:00, 0.3,18.3
2023/05/06 06:30:00, 0.5,18.4
2023/05/06 06:40:00, 0.4,18.4
2023/05/06 06:50:00, 0.7,18.7
2023/05/06 07:00:00, 0.5,18.7
2023/05/06 07:10:00, 0.3,19.0
2023/05/06 07:20:00, 0.5,18.8
2023/05/06 07:30:00, 1.0,19.0
2023/05/06 07:40:00, 1.1,19.3
2023/05/06 07:50:00, 1.7,20.0
2023/05/06 08:00:00, 1.5,19.8
2023/05/06 08:10:00, 1.7,20.2
2023/05/06 08:20:00, 2.2,20.3
2023/05/06 08:30:00, 2.3,20.7
2023/05/06 08:40:00, 2.9,20.6
2023/05/06 08:50:00, 4.0,21.8
2023/05/06 09:00:00,---,22.5
2023/05/06 09:10:00, 0.0,23.5
2023/05/06 09:20:00,---,22.6
2023/05/06 09:30:00, 4.7,23.2
2023/05/06 09:40:00, 3.0,22.6
2023/05/06 09:50:00, 2.9,22.1
2023/05/06 10:00:00, 3.2,21.8
2023/05/06 10:10:00, 2.4,21.9
2023/05/06 10:20:00, 2.1,22.1
2023/05/06 10:30:00, 2.1,22.0
2023/05/06 10:40:00, 1.2,22.4
2023/05/06 10:50:00, 1.2,22.9
2023/05/06 11:00:00, 0.0,23.0
2023/05/06 11:10:00, 0.5,23.0
2023/05/06 11:20:00, 1.0,23.1
2023/05/06 11:30:00, 2.4,23.2
2023/05/06 11:40:00, 1.5,23.4
2023/05/06 11:50:00, 1.4,23.1
2023/05/06 12:00:00, 1.5,22.6
2023/05/06 12:10:00, 1.7,22.2
2023/05/06 12:20:00, 1.5,22.4
2023/05/06 12:30:00, 1.6,22.1
2023/05/06 12:40:00, 1.8,21.9
2023/05/06 12:50:00, 3.0,21.9
2023/05/06 13:00:00, 1.3,21.8
2023/05/06 13:10:00, 1.6,21.9
2023/05/06 13:20:00, 1.9,21.6
2023/05/06 13:30:00, 1.8,21.4
2023/05/06 13:40:00, 1.6,21.2
2023/05/06 13:50:00, 4.0,20.7
2023/05/06 14:00:00,13.2,20.4
2023/05/06 14:10:00,13.8,20.4
2023/05/06 14:20:00,12.3,20.0
2023/05/06 14:30:00, 8.2,20.0
2023/05/06 14:40:00,12.6,19.5
2023/05/06 14:50:00,13.5,19.5
2023/05/06 15:00:00, 8.8,19.6
2023/05/06 15:10:00, 6.1,19.9
2023/05/06 15:20:00, 4.2,20.3
2023/05/06 15:30:00, 4.1,20.2
2023/05/06 15:40:00, 3.0,20.3
2023/05/06 15:50:00, 3.8,20.3
2023/05/06 16:00:00, 2.8,20.0
2023/05/06 16:10:00, 2.8,19.8
2023/05/06 16:20:00,11.4,19.2
2023/05/06 16:30:00,11.3,18.7
2023/05/06 16:40:00, 9.1,18.8
2023/05/06 16:50:00,15.2,19.0
2023/05/06 17:00:00,15.3,19.1
2023/05/06 17:10:00,14.5,19.4
2023/05/06 17:20:00,14.4,19.3
2023/05/06 17:30:00,14.4,18.7
2023/05/06 17:40:00,13.3,18.3
2023/05/06 17:50:00,14.8,18.2
2023/05/06 18:00:00,14.5,18.5
2023/05/06 18:10:00,13.7,18.2
2023/05/06 18:20:00, 8.6,18.1
2023/05/06 18:30:00,12.4,17.8
2023/05/06 18:40:00,14.1,17.9
2023/05/06 18:50:00,14.1,17.8
2023/05/06 19:00:00,13.1,17.6
2023/05/06 19:10:00, 5.2,17.5
2023/05/06 19:20:00, 1.1,17.2
2023/05/06 19:30:00, 1.3,17.3
2023/05/06 19:40:00, 3.0,17.2
2023/05/06 19:50:00, 3.9,17.1
2023/05/06 20:00:00, 3.6,17.1
2023/05/06 20:10:00, 3.6,17.1
2023/05/06 20:20:00, 3.3,17.0
2023/05/06 20:30:00, 3.8,17.2
2023/05/06 20:40:00, 4.0,16.9
2023/05/06 20:50:00, 1.0,16.9
2023/05/06 21:00:00, 0.1,17.1
2023/05/06 21:10:00, 0.1,17.0
2023/05/06 21:20:00, 0.1,16.8
2023/05/06 21:30:00, 0.1,16.9
2023/05/06 21:40:00, 0.1,16.9
2023/05/06 21:50:00, 0.2,16.9
2023/05/06 22:00:00, 0.1,17.0
2023/05/06 22:10:00, 0.0,17.2
2023/05/06 22:20:00, 0.0,16.8
2023/05/06 22:30:00, 0.0,16.7
2023/05/06 22:40:00, 0.0,16.7
2023/05/06 22:50:00, 0.1,16.5
2023/05/06 23:00:00, 0.1,16.3
2023/05/06 23:10:00, 0.1,16.0
2023/05/06 23:20:00, 0.1,15.8
2023/05/06 23:30:00, 0.1,15.9
2023/05/06 23:40:00, 0.1,15.6
2023/05/06 23:50:00, 0.1,15.7
